• In Latvia
  • List of Countries
  • For 7 days
  • Water Temperature
  • Satellite Maps
  • Weather Map
  • Weather Widgets
  • user-avatar
    Login

    Hourly Weather Perth

    Today, 30 April, Sunday

    Time Temperature Precipitation Wind Pressure Humidity
    00:00 +15°C° 0 mm 2 mps 764 mmHg 54%
    01:00 +14°C° 0 mm 2 mps 764 mmHg 56%
    02:00 +13°C° 0 mm 2 mps 764 mmHg 62%
    03:00 +13°C° 0 mm 2 mps 764 mmHg 66%
    04:00 +12°C° 0 mm 1 mps 764 mmHg 69%
    05:00 +11°C° 0 mm 1 mps 764 mmHg 72%
    06:00 +13°C° 0 mm 2 mps 764 mmHg 68%
    07:00 +15°C° 0 mm 2 mps 764 mmHg 64%
    08:00 +17°C° 0 mm 2 mps 764 mmHg 63%
    09:00 +20°C° 0 mm 2 mps 764 mmHg 59%
    10:00 +22°C° 0 mm 3 mps 764 mmHg 55%
    11:00 +25°C° 0 mm 3 mps 764 mmHg 51%
    12:00 +25°C° 0 mm 3 mps 764 mmHg 50%
    13:00 +26°C° 0 mm 3 mps 764 mmHg 49%
    14:00 +26°C° 0 mm 4 mps 763 mmHg 50%
    15:00 +26°C° 0 mm 3 mps 763 mmHg 53%
    16:00 +25°C° 0 mm 3 mps 764 mmHg 56%
    17:00 +24°C° 0 mm 3 mps 764 mmHg 59%
    18:00 +22°C° 0 mm 3 mps 764 mmHg 66%
    19:00 +20°C° 0 mm 3 mps 764 mmHg 73%
    20:00 +19°C° 0 mm 4 mps 765 mmHg 80%
    21:00 +18°C° 0 mm 4 mps 765 mmHg 82%
    22:00 +17°C° 0 mm 4 mps 766 mmHg 84%
    23:00 +15°C° 0 mm 4 mps 766 mmHg 86%

    Tomorrow, 1 May, Monday

    Time Temperature Precipitation Wind Pressure Humidity
    00:00 +15°C° 0 mm 4 mps 766 mmHg 85%
    01:00 +15°C° 0 mm 4 mps 766 mmHg 83%
    02:00 +14°C° 0 mm 4 mps 766 mmHg 82%
    03:00 +14°C° 0 mm 4 mps 766 mmHg 82%
    04:00 +14°C° 0 mm 4 mps 766 mmHg 81%
    05:00 +14°C° 0 mm 4 mps 766 mmHg 80%
    06:00 +14°C° 0 mm 4 mps 767 mmHg 78%
    07:00 +14°C° 0 mm 5 mps 767 mmHg 75%
    08:00 +15°C° 0 mm 5 mps 767 mmHg 73%
    09:00 +18°C° 0 mm 4 mps 767 mmHg 66%
    10:00 +20°C° 0 mm 4 mps 767 mmHg 59%
    11:00 +22°C° 0 mm 3 mps 767 mmHg 52%
    12:00 +24°C° 0 mm 3 mps 766 mmHg 48%
    13:00 +25°C° 0 mm 3 mps 766 mmHg 44%
    14:00 +27°C° 0 mm 2 mps 765 mmHg 40%
    15:00 +26°C° 0 mm 2 mps 765 mmHg 42%
    16:00 +25°C° 0 mm 3 mps 765 mmHg 44%
    17:00 +24°C° 0 mm 3 mps 765 mmHg 46%
    18:00 +22°C° 0 mm 3 mps 766 mmHg 50%
    19:00 +20°C° 0 mm 3 mps 766 mmHg 54%
    20:00 +18°C° 0 mm 4 mps 766 mmHg 58%
    21:00 +18°C° 0 mm 4 mps 767 mmHg 57%
    22:00 +18°C° 0 mm 4 mps 767 mmHg 55%
    23:00 +16°C° 0 mm 5 mps 767 mmHg 54%

    Day after tomorrow, 2 May, Tuesday

    Time Temperature Precipitation Wind Pressure Humidity
    00:00 +16°C° 0 mm 5 mps 767 mmHg 55%
    01:00 +15°C° 0 mm 5 mps 767 mmHg 56%
    02:00 +15°C° 0 mm 5 mps 767 mmHg 57%
    03:00 +14°C° 0 mm 5 mps 766 mmHg 58%
    04:00 +14°C° 0 mm 5 mps 766 mmHg 60%
    05:00 +14°C° 0 mm 4 mps 766 mmHg 61%
    06:00 +14°C° 0 mm 4 mps 766 mmHg 60%
    07:00 +14°C° 0 mm 4 mps 767 mmHg 59%
    08:00 +15°C° 0 mm 5 mps 767 mmHg 58%
    09:00 +18°C° 0 mm 4 mps 767 mmHg 51%
    10:00 +21°C° 0 mm 4 mps 767 mmHg 45%
    11:00 +25°C° 0 mm 3 mps 766 mmHg 38%
    12:00 +26°C° 0 mm 3 mps 766 mmHg 35%
    13:00 +27°C° 0 mm 2 mps 765 mmHg 31%
    14:00 +29°C° 0 mm 1 mps 764 mmHg 28%
    15:00 +27°C° 0 mm 1 mps 764 mmHg 33%
    16:00 +26°C° 0 mm 1 mps 764 mmHg 38%
    17:00 +25°C° 0 mm 1 mps 764 mmHg 44%
    18:00 +23°C° 0 mm 2 mps 764 mmHg 45%
    19:00 +20°C° 0 mm 2 mps 764 mmHg 47%
    20:00 +18°C° 0 mm 3 mps 765 mmHg 48%
    21:00 +18°C° 0 mm 3 mps 765 mmHg 48%
    22:00 +18°C° 0 mm 3 mps 765 mmHg 47%
    23:00 +18°C° 0 mm 4 mps 765 mmHg 46%

    3 May, Wednesday

    Time Temperature Precipitation Wind Pressure Humidity
    00:00 +18°C° 0 mm 4 mps 764 mmHg 46%
    01:00 +18°C° 0 mm 4 mps 764 mmHg 46%
    02:00 +18°C° 0 mm 4 mps 764 mmHg 46%
    03:00 +17°C° 0 mm 5 mps 763 mmHg 47%
    04:00 +16°C° 0 mm 5 mps 763 mmHg 47%
    05:00 +16°C° 0 mm 5 mps 763 mmHg 48%
    06:00 +17°C° 0 mm 5 mps 763 mmHg 47%
    07:00 +17°C° 0 mm 5 mps 763 mmHg 46%
    08:00 +17°C° 0 mm 5 mps 763 mmHg 45%
    09:00 +21°C° 0 mm 5 mps 763 mmHg 40%
    10:00 +23°C° 0 mm 5 mps 763 mmHg 34%
    11:00 +27°C° 0 mm 5 mps 763 mmHg 29%
    12:00 +28°C° 0 mm 4 mps 763 mmHg 27%
    13:00 +29°C° 0 mm 4 mps 762 mmHg 24%
    14:00 +32°C° 0 mm 4 mps 761 mmHg 22%
    15:00 +29°C° 0 mm 4 mps 761 mmHg 26%
    16:00 +28°C° 0 mm 4 mps 761 mmHg 30%
    17:00 +27°C° 0 mm 4 mps 761 mmHg 34%
    18:00 +24°C° 0 mm 3 mps 761 mmHg 46%
    19:00 +20°C° 0 mm 3 mps 761 mmHg 58%
    20:00 +18°C° 0 mm 2 mps 762 mmHg 71%
    21:00 +18°C° 0 mm 2 mps 762 mmHg 71%
    22:00 +18°C° 0 mm 2 mps 762 mmHg 71%
    23:00 +18°C° 0 mm 2 mps 762 mmHg 71%

    4 May, Thursday

    Time Temperature Precipitation Wind Pressure Humidity
    00:00 +17°C° 0 mm 2 mps 762 mmHg 71%
    01:00 +17°C° 0 mm 2 mps 761 mmHg 71%
    02:00 +17°C° 0 mm 2 mps 761 mmHg 71%
    03:00 +17°C° 0 mm 2 mps 761 mmHg 72%
    04:00 +17°C° 0 mm 2 mps 761 mmHg 73%
    05:00 +16°C° 0 mm 2 mps 761 mmHg 74%
    06:00 +17°C° 0 mm 2 mps 762 mmHg 73%
    07:00 +18°C° 0 mm 2 mps 762 mmHg 72%
    08:00 +18°C° 0 mm 2 mps 763 mmHg 71%
    09:00 +20°C° 0 mm 3 mps 762 mmHg 65%
    10:00 +24°C° 0 mm 3 mps 762 mmHg 60%
    11:00 +26°C° 0 mm 4 mps 762 mmHg 54%
    12:00 +26°C° 0 mm 4 mps 762 mmHg 52%
    13:00 +27°C° 0 mm 4 mps 761 mmHg 50%
    14:00 +27°C° 0 mm 4 mps 761 mmHg 48%
    15:00 +26°C° 0 mm 4 mps 761 mmHg 56%
    16:00 +23°C° 0 mm 4 mps 761 mmHg 64%
    17:00 +22°C° 0 mm 3 mps 761 mmHg 71%
    18:00 +21°C° 0 mm 3 mps 761 mmHg 79%
    19:00 +19°C° 0 mm 3 mps 762 mmHg 87%
    20:00 +18°C° 0 mm 2 mps 762 mmHg 95%
    21:00 +17°C° 0 mm 2 mps 762 mmHg 96%
    22:00 +17°C° 0 mm 2 mps 762 mmHg 97%
    23:00 +16°C° 0 mm 2 mps 763 mmHg 98%

    5 May, Friday

    Time Temperature Precipitation Wind Pressure Humidity
    00:00 +16°C° 0.1 mm 2 mps 763 mmHg 98%
    01:00 +16°C° 0.1 mm 2 mps 762 mmHg 98%
    02:00 +16°C° 0.1 mm 2 mps 762 mmHg 98%
    03:00 +16°C° 0.1 mm 2 mps 763 mmHg 98%
    04:00 +17°C° 0.1 mm 2 mps 763 mmHg 97%
    05:00 +17°C° 0.1 mm 2 mps 763 mmHg 96%
    06:00 +19°C° 0.1 mm 1 mps 763 mmHg 94%
    07:00 +19°C° 0.1 mm 1 mps 764 mmHg 93%
    08:00 +20°C° 0.1 mm 1 mps 765 mmHg 91%
    09:00 +21°C° 0.1 mm 1 mps 765 mmHg 82%
    10:00 +23°C° 0.1 mm 2 mps 765 mmHg 73%
    11:00 +24°C° 0.1 mm 2 mps 765 mmHg 64%
    12:00 +25°C° 0.1 mm 2 mps 765 mmHg 58%
    13:00 +26°C° 0.1 mm 3 mps 764 mmHg 52%
    14:00 +26°C° 0.1 mm 3 mps 764 mmHg 45%
    15:00 +25°C° 0 mm 3 mps 764 mmHg 48%
    16:00 +24°C° 0 mm 3 mps 765 mmHg 50%
    17:00 +22°C° 0 mm 3 mps 765 mmHg 53%
    18:00 +20°C° 0 mm 3 mps 766 mmHg 65%
    19:00 +18°C° 0 mm 3 mps 766 mmHg 78%
    20:00 +16°C° 0 mm 2 mps 767 mmHg 90%
    21:00 +15°C° 0 mm 2 mps 767 mmHg 91%
    22:00 +15°C° 0 mm 2 mps 767 mmHg 92%
    23:00 +15°C° 0 mm 2 mps 767 mmHg 93%
    Show more